FW1989 Weather Reports


Display with metric or nautical units.
time (UTC)temp
F
wind
direction
speed
MPH
gust
MPH
rain 1hr
in
rain 24hr
in
rain mn
in
humidity
%
barometer
mb
20260905234547 80 16 5.0 9.0 0.00 0.00 0.00 81 1009.9
20260905233050 81 338 10.0 16.0 0.00 0.00 0.00 78 1009.6
20260905231548 82 355 9.0 15.0 0.00 0.00 0.00 78 1009.4
20260905230045 83 360 8.0 12.0 0.00 0.00 0.00 79 1009.3
20260905224543 82 355 3.0 6.0 0.00 0.00 0.00 81 1009.3
20260905223042 83 355 5.0 9.0 0.00 0.00 0.00 79 1009.3
20260905221558 84 22 6.0 11.0 0.00 0.00 0.00 78 1009.2
20260905220041 84 19 8.0 13.0 0.00 0.00 0.00 76 1009.0
20260905214539 85 18 9.0 13.0 0.00 0.00 0.00 76 1008.9
20260905213039 85 26 7.0 11.0 0.00 0.00 0.00 77 1008.7
20260905211537 84 9 9.0 13.0 0.00 0.00 0.00 77 1008.6
20260905210035 84 36 9.0 16.0 0.00 0.00 0.00 78 1008.8
20260905204538 85 32 10.0 17.0 0.00 0.00 0.00 78 1008.8
20260905203036 85 355 8.0 13.0 0.00 0.00 0.00 78 1008.8
20260905201533 84 17 7.0 14.0 0.00 0.00 0.00 80 1009.0
20260905200032 87 17 9.0 13.0 0.00 0.00 0.00 73 1009.2
20260905194529 87 321 6.0 9.0 0.00 0.00 0.00 72 1009.0
20260905193034 86 300 5.0 10.0 0.00 0.00 0.00 72 1009.3
20260905191529 85 298 6.0 10.0 0.00 0.00 0.00 73 1009.4
20260905190030 87 324 5.0 12.0 0.00 0.00 0.00 71 1009.7
20260905184520 88 300 2.0 9.0 0.00 0.00 0.00 69 1009.8
20260905183013 87 317 5.0 9.0 0.00 0.00 0.00 70 1010.0
20260905181507 87 302 6.0 11.0 0.00 0.00 0.00 67 1010.1
20260905180008 87 214 2.0 8.0 0.00 0.00 0.00 70 1010.2
20260905174502 85 327 5.0 11.0 0.00 0.00 0.00 69 1010.3
20260905173119 84 176 4.0 11.0 0.00 0.00 0.00 72 1010.4
20260905171557 84 205 4.0 10.0 0.00 0.00 0.00 71 1010.6
20260905170053 83 207 6.0 12.0 0.00 0.00 0.00 72 1010.8
20260905164555 83 170 5.0 12.0 0.00 0.00 0.00 74 1011.0
20260905163049 82 242 5.0 10.0 0.00 0.00 0.00 73 1011.1
20260905161547 81 223 7.0 11.0 0.00 0.00 0.00 74 1011.2
20260905160055 81 251 4.0 9.0 0.00 0.00 0.00 74 1011.2
20260905154549 81 213 5.0 11.0 0.00 0.00 0.00 75 1011.1
20260905153040 79 209 4.0 9.0 0.00 0.00 0.00 77 1011.1
20260905151539 78 207 8.0 15.0 0.00 0.00 0.00 79 1011.1
20260905150041 77 201 3.0 10.0 0.00 0.00 0.00 79 1011.2
20260905144535 77 191 4.0 9.0 0.00 0.00 0.00 80 1011.4
20260905143032 76 213 6.0 10.0 0.00 0.00 0.00 82 1011.0
20260905141530 75 207 6.0 16.0 0.00 0.00 0.00 83 1011.0
20260905140028 74 196 8.0 11.0 0.00 0.00 0.00 84 1010.8
20260905134528 74 195 6.0 13.0 0.00 0.00 0.00 83 1010.7
20260905133027 74 192 8.0 13.0 0.00 0.00 0.00 85 1010.5
20260905131524 74 195 9.0 13.0 0.00 0.00 0.00 85 1010.5
20260905130021 73 191 10.0 14.0 0.00 0.00 0.00 87 1010.8
20260905124518 72 186 8.0 14.0 0.00 0.00 0.00 89 1010.8
20260905123013 71 178 7.0 13.0 0.00 0.00 0.00 91 1010.7
20260905121509 70 178 7.0 12.0 0.00 0.00 0.00 92 1010.8
20260905120019 70 175 6.0 10.0 0.00 0.00 0.00 92 1010.9
20260905114504 70 161 5.0 10.0 0.00 0.00 0.00 91 1010.9
20260905113001 70 158 5.0 12.0 0.00 0.00 0.00 91 1010.8
20260905111653 70 138 8.0 17.0 0.00 0.00 0.00 90 1010.5
20260905110056 70 152 8.0 14.0 0.00 0.00 0.00 90 1010.5
20260905104553 71 185 10.0 19.0 0.00 0.00 0.00 89 1010.4
20260905103053 72 140 11.0 17.0 0.00 0.00 0.00 90 1010.4
20260905101545 75 130 14.0 21.0 0.00 0.00 0.00 92 1010.4
20260905100043 76 117 3.0 9.0 0.00 0.00 0.00 95 1010.3
20260905094543 75 88 6.0 11.0 0.00 0.00 0.00 95 1010.2
20260905093042 75 215 0.0 2.0 0.00 0.00 0.00 93 1009.8
20260905091539 75 215 3.0 5.0 0.00 0.00 0.00 94 1009.7
20260905090039 76 225 1.0 3.0 0.00 0.00 0.00 92 1009.7
20260905084535 76 285 2.0 3.0 0.00 0.00 0.00 91 1009.7
20260905083033 76 286 0.0 1.0 0.00 0.00 0.00 91 1009.6
20260905081533 77 286 0.0 2.0 0.00 0.00 0.00 91 1009.5
20260905080034 77 286 0.0 4.0 0.00 0.00 0.00 91 1009.5
20260905074531 77 292 3.0 5.0 0.00 0.00 0.00 91 1009.6
20260905073036 77 333 6.0 13.0 0.00 0.00 0.00 89 1009.7
20260905071527 78 273 1.0 4.0 0.00 0.00 0.00 88 1009.2
20260905070044 78 276 1.0 4.0 0.00 0.00 0.00 87 1008.7
20260905064539 78 269 2.0 4.0 0.00 0.00 0.00 87 1008.7
20260905063024 79 267 2.0 6.0 0.00 0.00 0.00 85 1008.9
20260905061521 79 236 2.0 5.0 0.00 0.00 0.00 85 1009.2
20260905060023 79 218 3.0 6.0 0.00 0.00 0.00 86 1009.4
20260905054532 79 246 1.0 3.0 0.00 0.00 0.00 86 1009.6
20260905053017 80 227 1.0 4.0 0.00 0.00 0.00 85 1009.8
20260905051523 80 248 2.0 3.0 0.00 0.00 0.00 85 1009.8
20260905050013 80 232 2.0 4.0 0.00 0.00 0.00 86 1009.8
20260905044509 79 225 2.0 3.0 0.00 0.00 0.00 89 1010.0
20260905043003 79 225 0.0 4.0 0.00 0.00 0.00 91 1010.2
20260905041603 78 213 2.0 4.0 0.00 0.00 0.00 93 1010.3
20260905041501 78 213 2.0 4.0 0.00 0.00 0.00 93 1010.3
20260905040057 78 182 1.0 2.0 0.00 0.00 0.00 91 1010.4
20260905034604 79 183 0.0 1.0 0.00 0.00 0.00 91 1010.5
20260905033055 79 183 0.0 1.0 0.00 0.00 0.00 91 1010.6
20260905031556 79 183 0.0 4.0 0.00 0.00 0.00 93 1010.6
20260905030115 79 182 1.0 3.0 0.00 0.00 0.00 92 1010.6
20260905024554 79 178 3.0 5.0 0.00 0.00 0.00 91 1010.5
20260905023055 80 181 3.0 4.0 0.00 0.00 0.00 90 1010.5
20260905021556 80 178 3.0 5.0 0.00 0.00 0.00 90 1010.2
20260905020055 81 175 2.0 6.0 0.00 0.00 0.00 89 1010.2
20260905014557 81 176 3.0 5.0 0.00 0.00 0.00 88 1010.1
20260905013053 81 175 3.0 4.0 0.00 0.00 0.00 89 1010.1
20260905011552 81 175 2.0 4.0 0.00 0.00 0.00 89 1009.9
20260905010051 82 175 1.0 4.0 0.00 0.00 0.00 88 1010.0
20260905004551 82 175 3.0 4.0 0.00 0.00 0.00 88 1009.8
20260905003052 83 173 3.0 5.0 0.00 0.00 0.00 87 1009.7
20260905001550 83 176 4.0 5.0 0.00 0.00 0.00 85 1009.8
20260905000051 84 169 4.0 6.0 0.00 0.00 0.00 84 1009.7